Hourly Weather Hramotne

Today, 11 May, Tuesday

Time Temperature Precipitation Wind Pressure Humidity
00:00 +9°C° 0 mm 1 mps 674 mmHg 88%
01:00 +8°C° 0 mm 1 mps 674 mmHg 87%
02:00 +8°C° 0 mm 1 mps 674 mmHg 87%
03:00 +8°C° 0 mm 1 mps 674 mmHg 88%
04:00 +8°C° 0 mm 1 mps 673 mmHg 88%
05:00 +8°C° 0 mm 1 mps 673 mmHg 88%
06:00 +10°C° 0 mm 1 mps 674 mmHg 78%
07:00 +13°C° 0 mm 1 mps 674 mmHg 69%
08:00 +15°C° 0 mm 1 mps 675 mmHg 59%
09:00 +18°C° 0 mm 1 mps 675 mmHg 53%
10:00 +19°C° 0 mm 1 mps 675 mmHg 46%
11:00 +20°C° 0 mm 2 mps 675 mmHg 40%
12:00 +20°C° 0 mm 2 mps 675 mmHg 39%
13:00 +20°C° 0 mm 2 mps 674 mmHg 38%
14:00 +21°C° 0 mm 3 mps 674 mmHg 37%
15:00 +20°C° 0 mm 3 mps 674 mmHg 41%
16:00 +19°C° 0 mm 3 mps 673 mmHg 45%
17:00 +18°C° 0 mm 2 mps 673 mmHg 50%
18:00 +16°C° 0 mm 2 mps 673 mmHg 61%
19:00 +13°C° 0 mm 2 mps 672 mmHg 71%
20:00 +10°C° 0 mm 1 mps 672 mmHg 82%
21:00 +10°C° 0 mm 1 mps 671 mmHg 84%
22:00 +9°C° 0 mm 1 mps 671 mmHg 86%
23:00 +8°C° 0 mm 1 mps 671 mmHg 88%

Tomorrow, 12 May, Wednesday

Time Temperature Precipitation Wind Pressure Humidity
00:00 +8°C° 0 mm 1 mps 671 mmHg 88%
01:00 +8°C° 0 mm 1 mps 670 mmHg 89%
02:00 +7°C° 0 mm 1 mps 670 mmHg 89%
03:00 +7°C° 0 mm 1 mps 670 mmHg 88%
04:00 +7°C° 0 mm 1 mps 669 mmHg 88%
05:00 +7°C° 0 mm 1 mps 669 mmHg 87%
06:00 +9°C° 0 mm 1 mps 669 mmHg 77%
07:00 +11°C° 0 mm 1 mps 669 mmHg 66%
08:00 +14°C° 0 mm 1 mps 669 mmHg 55%
09:00 +15°C° 0 mm 2 mps 669 mmHg 53%
10:00 +16°C° 0 mm 3 mps 669 mmHg 51%
11:00 +17°C° 0 mm 3 mps 669 mmHg 49%
12:00 +16°C° 0.1 mm 3 mps 669 mmHg 53%
13:00 +16°C° 0.1 mm 3 mps 669 mmHg 58%
14:00 +16°C° 0.1 mm 3 mps 668 mmHg 62%
15:00 +13°C° 0.3 mm 3 mps 668 mmHg 69%
16:00 +13°C° 0.3 mm 2 mps 668 mmHg 76%
17:00 +12°C° 0.3 mm 2 mps 667 mmHg 83%
18:00 +10°C° 0.1 mm 2 mps 667 mmHg 87%
19:00 +9°C° 0.1 mm 2 mps 667 mmHg 91%
20:00 +9°C° 0.1 mm 1 mps 666 mmHg 95%
21:00 +9°C° 0 mm 1 mps 666 mmHg 95%
22:00 +8°C° 0 mm 1 mps 666 mmHg 95%
23:00 +8°C° 0 mm 1 mps 666 mmHg 96%

Day after tomorrow, 13 May, Thursday

Time Temperature Precipitation Wind Pressure Humidity
00:00 +8°C° 0 mm 1 mps 666 mmHg 95%
01:00 +8°C° 0 mm 1 mps 665 mmHg 95%
02:00 +8°C° 0 mm 1 mps 665 mmHg 95%
03:00 +9°C° 0.1 mm 1 mps 665 mmHg 95%
04:00 +9°C° 0.1 mm 1 mps 664 mmHg 95%
05:00 +9°C° 0.1 mm 1 mps 664 mmHg 95%
06:00 +9°C° 0.4 mm 1 mps 664 mmHg 93%
07:00 +10°C° 0.4 mm 1 mps 664 mmHg 92%
08:00 +10°C° 0.4 mm 1 mps 664 mmHg 90%
09:00 +11°C° 0.3 mm 1 mps 664 mmHg 89%
10:00 +11°C° 0.3 mm 1 mps 664 mmHg 87%
11:00 +10°C° 0.3 mm 2 mps 664 mmHg 86%
12:00 +11°C° 0.5 mm 1 mps 664 mmHg 87%
13:00 +10°C° 0.5 mm 1 mps 664 mmHg 89%
14:00 +10°C° 0.5 mm 1 mps 665 mmHg 91%
15:00 +10°C° 0.2 mm 1 mps 665 mmHg 90%
16:00 +10°C° 0.2 mm 1 mps 665 mmHg 90%
17:00 +9°C° 0.2 mm 1 mps 665 mmHg 90%
18:00 +9°C° 0 mm 1 mps 665 mmHg 92%
19:00 +8°C° 0 mm 1 mps 665 mmHg 93%
20:00 +8°C° 0 mm 1 mps 665 mmHg 94%
21:00 +7°C° 0 mm 1 mps 665 mmHg 95%
22:00 +7°C° 0 mm 1 mps 665 mmHg 95%
23:00 +6°C° 0 mm 1 mps 665 mmHg 95%

14 May, Friday

Time Temperature Precipitation Wind Pressure Humidity
00:00 +7°C° 0 mm 1 mps 665 mmHg 95%
01:00 +7°C° 0 mm 1 mps 665 mmHg 95%
02:00 +7°C° 0 mm 1 mps 665 mmHg 95%
03:00 +7°C° 0 mm 1 mps 665 mmHg 95%
04:00 +7°C° 0 mm 1 mps 665 mmHg 95%
05:00 +7°C° 0 mm 1 mps 666 mmHg 95%
06:00 +8°C° 0.1 mm 1 mps 666 mmHg 90%
07:00 +9°C° 0.1 mm 1 mps 666 mmHg 85%
08:00 +11°C° 0.1 mm 1 mps 666 mmHg 81%
09:00 +9°C° 0.2 mm 2 mps 667 mmHg 81%
10:00 +9°C° 0.2 mm 2 mps 667 mmHg 82%
11:00 +9°C° 0.2 mm 2 mps 668 mmHg 82%
12:00 +10°C° 0.1 mm 2 mps 668 mmHg 77%
13:00 +11°C° 0.1 mm 3 mps 668 mmHg 72%
14:00 +11°C° 0.1 mm 3 mps 668 mmHg 67%
15:00 +11°C° 0 mm 3 mps 668 mmHg 65%
16:00 +11°C° 0 mm 3 mps 668 mmHg 64%
17:00 +11°C° 0 mm 3 mps 668 mmHg 63%
18:00 +10°C° 0 mm 2 mps 668 mmHg 71%
19:00 +8°C° 0 mm 2 mps 668 mmHg 80%
20:00 +7°C° 0 mm 1 mps 668 mmHg 88%
21:00 +6°C° 0 mm 1 mps 668 mmHg 90%
22:00 +6°C° 0 mm 1 mps 669 mmHg 92%
23:00 +5°C° 0 mm 1 mps 669 mmHg 93%

15 May, Saturday

Time Temperature Precipitation Wind Pressure Humidity
00:00 +5°C° 0 mm 1 mps 669 mmHg 94%
01:00 +5°C° 0 mm 1 mps 669 mmHg 94%
02:00 +5°C° 0 mm 1 mps 669 mmHg 94%
03:00 +5°C° 0 mm 1 mps 669 mmHg 93%
04:00 +5°C° 0 mm 1 mps 669 mmHg 93%
05:00 +5°C° 0 mm 1 mps 669 mmHg 92%
06:00 +7°C° 0 mm 1 mps 669 mmHg 82%
07:00 +10°C° 0 mm 1 mps 670 mmHg 73%
08:00 +12°C° 0 mm 1 mps 670 mmHg 63%
09:00 +13°C° 0.1 mm 1 mps 670 mmHg 59%
10:00 +15°C° 0.1 mm 1 mps 671 mmHg 55%
11:00 +16°C° 0.1 mm 1 mps 671 mmHg 51%
12:00 +15°C° 0.4 mm 1 mps 671 mmHg 57%
13:00 +15°C° 0.4 mm 1 mps 670 mmHg 63%
14:00 +14°C° 0.4 mm 1 mps 670 mmHg 70%
15:00 +14°C° 0.7 mm 1 mps 670 mmHg 72%
16:00 +14°C° 0.7 mm 1 mps 670 mmHg 74%
17:00 +14°C° 0.7 mm 1 mps 670 mmHg 77%
18:00 +12°C° 0.5 mm 1 mps 670 mmHg 82%
19:00 +10°C° 0.5 mm 1 mps 669 mmHg 88%
20:00 +9°C° 0.5 mm 1 mps 669 mmHg 94%
21:00 +8°C° 0 mm 1 mps 669 mmHg 95%
22:00 +8°C° 0 mm 1 mps 669 mmHg 96%
23:00 +7°C° 0 mm 1 mps 669 mmHg 98%

16 May, Sunday

Time Temperature Precipitation Wind Pressure Humidity
00:00 +8°C° 0 mm 1 mps 669 mmHg 98%
01:00 +8°C° 0 mm 1 mps 669 mmHg 98%
02:00 +9°C° 0 mm 1 mps 669 mmHg 99%
03:00 +9°C° 0 mm 1 mps 669 mmHg 98%
04:00 +9°C° 0 mm 1 mps 669 mmHg 98%
05:00 +9°C° 0 mm 1 mps 669 mmHg 98%
06:00 +9°C° 0.1 mm 1 mps 669 mmHg 98%
07:00 +9°C° 0.1 mm 1 mps 669 mmHg 98%
08:00 +10°C° 0.1 mm 1 mps 670 mmHg 98%
09:00 +10°C° 1.9 mm 1 mps 670 mmHg 98%
10:00 +10°C° 1.9 mm 1 mps 670 mmHg 98%
11:00 +9°C° 1.9 mm 2 mps 670 mmHg 98%
12:00 +9°C° 1.5 mm 1 mps 670 mmHg 98%
13:00 +9°C° 1.5 mm 1 mps 670 mmHg 98%
14:00 +9°C° 1.5 mm 1 mps 670 mmHg 98%
15:00 +10°C° 0.3 mm 1 mps 670 mmHg 97%
16:00 +10°C° 0.3 mm 1 mps 670 mmHg 96%
17:00 +10°C° 0.3 mm 1 mps 670 mmHg 96%
18:00 +10°C° 0.1 mm 1 mps 670 mmHg 96%
19:00 +9°C° 0.1 mm 1 mps 671 mmHg 97%
20:00 +9°C° 0.1 mm 1 mps 671 mmHg 98%
21:00 +9°C° 0 mm 1 mps 671 mmHg 98%
22:00 +8°C° 0 mm 0 mps 671 mmHg 98%
23:00 +8°C° 0 mm 0 mps 671 mmHg 98%
Show more

We Need Your Consent

Meteoprog and our Service Providers may store and access personal data such as cookies, device identifiers or other similar technologies on your device and process such data to personalise content and ads, as well as provide social media features and to analyse the traffic.

  • Store and/or access information on your device

    Cookies, device identifiers or other information can be stored or accessed on your device for the purposes indicated above.

  • Personalised ads and content, ad and content measurement, audience insights, and products development

    Ads and content can be personalised based on a profile. More data can be added to better personalise ads and content. Ad and content performance can be measured. Insights about the audience who saw the ads and content can be derived. Such data can be used to develop or improve user’s experience, systems and software.

By clicking ‘I Agree’ you will allow the use of indicated cookies, device identifiers, web beacons or other similar technologies. Your settings can be changed in the browser on your device.

For certain purposes, legitimate interests may be relied on, rather than consent. You can read more about this in our Privacy and Cookie Policy.